TimeHST,TemperatureF,Dew PointF,Humidity,Sea Level PressureIn,VisibilityMPH,Wind Direction,Wind SpeedMPH,Gust SpeedMPH,PrecipitationIn,Events,Conditions,WindDirDegrees,DateUTC
12:00 AM,64.4,60.8,88,30.10,10.0,Calm,Calm,-,N/A,,Light Drizzle,0,2013-02-20 10:00:00
12:08 AM,64.4,60.8,88,30.10,10.0,West,3.5,-,N/A,,Partly Cloudy,280,2013-02-20 10:08:00
12:26 AM,62.6,60.8,94,30.11,10.0,Calm,Calm,-,N/A,,Scattered Clouds,0,2013-02-20 10:26:00
12:28 AM,64.4,60.8,88,30.10,10.0,Calm,Calm,-,N/A,,Light Drizzle,0,2013-02-20 10:28:00
12:39 AM,64.4,60.8,88,30.10,10.0,Calm,Calm,-,N/A,,Partly Cloudy,0,2013-02-20 10:39:00
12:55 AM,63.0,60.3,91,30.09,10.0,WNW,4.6,-,0.00,,Clear,290,2013-02-20 10:55:00
12:57 AM,62.6,60.8,94,30.09,10.0,NW,4.6,-,N/A,,Light Drizzle,310,2013-02-20 10:57:00
1:37 AM,62.6,60.8,94,30.09,10.0,Calm,Calm,-,N/A,,Partly Cloudy,0,2013-02-20 11:37:00
1:43 AM,62.6,60.8,94,30.10,10.0,NNE,3.5,-,N/A,Rain,Light Rain,20,2013-02-20 11:43:00
1:55 AM,64.4,61.5,90,30.09,4.0,ENE,4.6,-,0.04,Rain,Light Rain,70,2013-02-20 11:55:00
2:03 AM,64.4,60.8,88,30.09,10.0,Calm,Calm,-,N/A,,Scattered Clouds,0,2013-02-20 12:03:00
2:21 AM,62.6,60.8,94,30.09,10.0,West,4.6,-,N/A,,Light Drizzle,270,2013-02-20 12:21:00
2:42 AM,64.4,60.8,88,30.07,10.0,East,4.6,-,N/A,,Partly Cloudy,80,2013-02-20 12:42:00
2:52 AM,64.4,60.8,88,30.07,10.0,Variable,4.6,-,N/A,,Light Drizzle,0,2013-02-20 12:52:00
2:55 AM,64.4,61.2,89,30.07,10.0,Variable,4.6,-,0.02,,Light Drizzle,0,2013-02-20 12:55:00
3:16 AM,64.4,60.8,88,30.07,10.0,Variable,4.6,-,N/A,,Scattered Clouds,0,2013-02-20 13:16:00
3:18 AM,64.4,60.8,88,30.07,10.0,Calm,Calm,-,N/A,,Light Drizzle,0,2013-02-20 13:18:00
3:52 AM,64.4,60.8,88,30.06,10.0,NW,3.5,-,N/A,,Light Drizzle,310,2013-02-20 13:52:00
3:55 AM,64.0,60.6,89,30.06,10.0,WNW,5.8,-,0.03,,Light Drizzle,300,2013-02-20 13:55:00
4:00 AM,64.4,60.8,88,30.07,10.0,WNW,3.5,-,N/A,,Partly Cloudy,300,2013-02-20 14:00:00
4:04 AM,64.4,60.8,88,30.06,10.0,NNW,4.6,-,N/A,,Light Drizzle,340,2013-02-20 14:04:00
4:15 AM,64.4,60.8,88,30.06,10.0,Variable,5.8,-,N/A,,Partly Cloudy,0,2013-02-20 14:15:00
4:22 AM,64.4,60.8,88,30.06,10.0,ENE,9.2,-,N/A,Rain,Light Rain,70,2013-02-20 14:22:00
4:50 AM,64.4,60.8,88,30.07,10.0,NE,6.9,-,N/A,,Clear,50,2013-02-20 14:50:00
4:55 AM,64.4,60.4,87,30.07,10.0,NNE,6.9,-,0.01,,Clear,30,2013-02-20 14:55:00
4:56 AM,64.4,60.8,88,30.07,10.0,NNE,6.9,-,N/A,Rain,Light Rain,30,2013-02-20 14:56:00
5:15 AM,64.4,60.8,88,30.07,10.0,ENE,8.1,-,N/A,,Clear,60,2013-02-20 15:15:00
5:23 AM,64.4,60.8,88,30.07,10.0,NE,8.1,-,N/A,,Light Drizzle,50,2013-02-20 15:23:00
5:45 AM,64.4,60.8,88,30.08,10.0,ENE,13.8,-,N/A,,Partly Cloudy,60,2013-02-20 15:45:00
5:48 AM,64.4,60.8,88,30.08,10.0,NE,12.7,-,N/A,,Light Drizzle,50,2013-02-20 15:48:00
5:55 AM,64.4,60.4,87,30.09,10.0,ENE,10.4,-,0.00,Rain,Light Rain,70,2013-02-20 15:55:00
6:01 AM,64.4,60.8,88,30.09,10.0,ENE,10.4,-,N/A,,Clear,70,2013-02-20 16:01:00
6:03 AM,64.4,60.8,88,30.09,10.0,ENE,11.5,-,N/A,Rain,Light Rain,70,2013-02-20 16:03:00
6:14 AM,64.4,60.8,88,30.09,10.0,ENE,9.2,-,N/A,,Clear,60,2013-02-20 16:14:00
6:37 AM,64.4,60.8,88,30.10,9.0,NE,11.5,-,N/A,,Drizzle,50,2013-02-20 16:37:00
6:55 AM,64.6,60.3,86,30.11,10.0,Variable,3.5,-,0.01,,Partly Cloudy,0,2013-02-20 16:55:00
7:08 AM,62.6,59.0,88,30.12,10.0,NW,5.8,-,N/A,Rain,Light Rain,310,2013-02-20 17:08:00
7:26 AM,62.6,59.0,88,30.12,10.0,West,6.9,-,N/A,,Partly Cloudy,280,2013-02-20 17:26:00
7:30 AM,62.6,60.8,94,30.12,10.0,WSW,5.8,-,N/A,Rain,Light Rain,250,2013-02-20 17:30:00
7:41 AM,64.4,60.8,88,30.12,10.0,Calm,Calm,-,N/A,,Partly Cloudy,0,2013-02-20 17:41:00
7:48 AM,64.4,60.8,88,30.13,10.0,Calm,Calm,-,N/A,,Light Drizzle,0,2013-02-20 17:48:00
7:55 AM,64.4,60.8,88,30.14,10.0,Calm,Calm,-,0.01,,Light Drizzle,0,2013-02-20 17:55:00
8:01 AM,64.4,60.8,88,30.13,10.0,Variable,3.5,-,N/A,,Clear,0,2013-02-20 18:01:00
8:55 AM,68.2,62.2,81,30.15,10.0,North,4.6,-,0.00,,Partly Cloudy,10,2013-02-20 18:55:00
9:06 AM,68.0,62.6,83,30.15,10.0,Calm,Calm,-,N/A,,Light Drizzle,0,2013-02-20 19:06:00
9:24 AM,69.8,62.6,78,30.15,10.0,Variable,5.8,-,N/A,,Partly Cloudy,0,2013-02-20 19:24:00
9:55 AM,68.7,61.7,78,30.16,10.0,NNE,5.8,-,0.00,,Mostly Cloudy,30,2013-02-20 19:55:00
10:04 AM,68.0,60.8,78,30.16,10.0,NNE,8.1,-,N/A,,Light Drizzle,30,2013-02-20 20:04:00
10:14 AM,69.8,62.6,78,30.16,10.0,North,6.9,-,N/A,,Mostly Cloudy,360,2013-02-20 20:14:00
10:40 AM,69.8,62.6,78,30.16,10.0,ENE,11.5,-,N/A,,Scattered Clouds,60,2013-02-20 20:40:00
10:49 AM,69.8,62.6,78,30.16,10.0,NNE,12.7,-,N/A,,Light Drizzle,20,2013-02-20 20:49:00
10:55 AM,69.4,62.4,78,30.16,10.0,NNE,8.1,-,0.00,,Light Drizzle,20,2013-02-20 20:55:00
11:03 AM,69.8,62.6,78,30.16,10.0,East,8.1,-,N/A,,Scattered Clouds,90,2013-02-20 21:03:00
11:09 AM,69.8,62.6,78,30.16,10.0,Variable,5.8,-,N/A,,Drizzle,0,2013-02-20 21:09:00
11:28 AM,69.8,62.6,78,30.15,10.0,NE,6.9,-,N/A,,Scattered Clouds,50,2013-02-20 21:28:00
11:45 AM,69.8,62.6,78,30.14,9.0,ENE,8.1,-,N/A,,Light Drizzle,70,2013-02-20 21:45:00
11:55 AM,69.3,62.6,79,30.14,6.0,Variable,4.6,-,0.00,Rain,Light Rain,0,2013-02-20 21:55:00
12:01 PM,69.8,62.6,78,30.14,10.0,NE,8.1,-,N/A,,Scattered Clouds,50,2013-02-20 22:01:00
12:13 PM,69.8,62.6,78,30.14,10.0,NE,9.2,-,N/A,,Light Drizzle,50,2013-02-20 22:13:00
12:23 PM,69.8,62.6,78,30.14,4.0,Variable,3.5,-,N/A,Rain,Light Rain,0,2013-02-20 22:23:00
12:44 PM,69.8,64.4,83,30.13,10.0,Variable,6.9,-,N/A,,Partly Cloudy,0,2013-02-20 22:44:00
12:45 PM,69.8,64.4,83,30.13,10.0,ENE,8.1,-,N/A,,Scattered Clouds,60,2013-02-20 22:45:00
12:54 PM,69.8,62.6,78,30.13,9.0,ENE,11.5,-,N/A,Rain,Light Rain,60,2013-02-20 22:54:00
12:55 PM,69.6,63.3,80,30.13,9.0,ENE,9.2,-,0.01,,Light Drizzle,70,2013-02-20 22:55:00
1:45 PM,71.6,64.4,78,30.10,10.0,ENE,18.4,24.2,N/A,,Partly Cloudy,60,2013-02-20 23:45:00
1:46 PM,71.6,64.4,78,30.10,10.0,NE,17.3,24.2,N/A,,Light Drizzle,50,2013-02-20 23:46:00
1:55 PM,70.5,64.0,80,30.09,10.0,ENE,18.4,-,0.01,,Light Drizzle,60,2013-02-20 23:55:00
2:07 PM,71.6,62.6,73,30.09,10.0,NE,12.7,-,N/A,,Clear,50,2013-02-21 00:07:00
2:55 PM,73.0,61.7,67,30.08,10.0,East,19.6,25.3,0.00,,Partly Cloudy,80,2013-02-21 00:55:00
3:55 PM,73.2,60.1,63,30.08,10.0,NE,21.9,28.8,N/A,,Clear,50,2013-02-21 01:55:00
4:55 PM,71.8,57.7,61,30.09,10.0,NE,8.1,-,N/A,,Partly Cloudy,40,2013-02-21 02:55:00
5:55 PM,69.8,57.6,65,30.10,10.0,NE,8.1,-,N/A,,Mostly Cloudy,40,2013-02-21 03:55:00
6:55 PM,68.5,58.1,69,30.11,10.0,NE,5.8,-,N/A,,Scattered Clouds,50,2013-02-21 04:55:00
7:55 PM,68.0,58.1,71,30.13,10.0,ENE,6.9,16.1,N/A,,Scattered Clouds,60,2013-02-21 05:55:00
8:55 PM,68.0,57.2,68,30.14,10.0,Variable,6.9,-,N/A,,Scattered Clouds,0,2013-02-21 06:55:00
9:55 PM,68.0,57.6,69,30.14,10.0,NNE,10.4,-,N/A,,Mostly Cloudy,30,2013-02-21 07:55:00
10:55 PM,67.5,57.4,70,30.13,10.0,NE,9.2,-,N/A,,Partly Cloudy,40,2013-02-21 08:55:00
11:55 PM,67.1,57.2,70,30.12,10.0,NNE,9.2,-,N/A,,Clear,20,2013-02-21 09:55:00